Change the Weather History Date:

Sunday, July 14, 2013

  Actual Average Record
Temperature  
Mean Temperature 74 °F -  
Max Temperature 88 °F 85 °F 95 °F (1976)
Min Temperature 59 °F 59 °F 46 °F (1950)
Cooling Degree Days 8    
Growing Degree Days 24 (Base 50)    
Moisture  
Dew Point 64 °F    
Average Humidity 72    
Maximum Humidity 97    
Minimum Humidity 42    
Precipitation  
Precipitation 0.00 in - - ()
Sea Level Pressure  
Sea Level Pressure 30.26 in    
Wind  
Wind Speed 1 mph (East)    
Max Wind Speed 7 mph    
Max Gust Speed -    
Visibility 9 miles    
Events      
Averages and records for this station are not official NWS values.
T = Trace of Precipitation, MM = Missing Value Source: NWS Daily Summary

Daily Weather History Graph

Daily Weather History Graph

Search for Another Location

Airport or City:

Trip Planner

Search our weather history database for the weather conditions in past years. The results will help you decide how hot, cold, wet, or windy it might be!

Date:

Astronomy

Jul. 14, 2013 Rise Set
Actual Time 6:11 AM EDT 9:17 PM EDT
Civil Twilight 5:37 AM EDT 9:51 PM EDT
Nautical Twilight 4:52 AM EDT 10:35 PM EDT
Astronomical Twilight 3:59 AM EDT 11:28 PM EDT
Moon 12:40 PM EDT (7/14) No Moon Set
Length of Visible Light 16h 14m
Length of Day
15h 05m
Waxing Crescent, 35% of the Moon is Illuminated
Jul 14
Waxing Crescent
Jul 15
First Quarter
Jul 22
Full
Jul 29
Last Quarter
Aug 6
New

Hourly Weather History & Observations

Time (EDT) Temp. Heat Index Dew Point Humidity Pressure Visibility Wind Dir Wind Speed Gust Speed Precip Events Conditions
12:14 AM 64.4 °F - 60.4 °F 87% 30.23 in 10.0 mi Calm Calm - N/A   Clear
12:35 AM 64.4 °F - 61.2 °F 89% 30.23 in 10.0 mi Calm Calm - N/A   Clear
12:54 AM 64.6 °F - 61.7 °F 90% 30.23 in 10.0 mi Calm Calm - N/A   Clear
1:15 AM 65.5 °F - 61.0 °F 85% 30.23 in 10.0 mi Calm Calm - N/A   Clear
1:34 AM 63.9 °F - 59.7 °F 86% 30.23 in 10.0 mi Calm Calm - N/A   Clear
1:54 AM 62.1 °F - 59.5 °F 91% 30.23 in 10.0 mi Calm Calm - N/A   Clear
2:15 AM 62.1 °F - 59.5 °F 91% 30.23 in 10.0 mi Calm Calm - N/A   Clear
2:34 AM 62.4 °F - 60.3 °F 93% 30.23 in 10.0 mi Calm Calm - N/A   Clear
2:54 AM 61.9 °F - 60.3 °F 94% 30.24 in 10.0 mi Calm Calm - N/A   Clear
3:14 AM 61.3 °F - 59.7 °F 94% 30.24 in 10.0 mi Calm Calm - N/A   Clear
3:35 AM 61.2 °F - 59.7 °F 95% 30.25 in 10.0 mi Calm Calm - N/A   Clear
3:54 AM 61.5 °F - 59.5 °F 93% 30.25 in 10.0 mi Calm Calm - N/A   Clear
4:14 AM 61.2 °F - 59.5 °F 94% 30.25 in 10.0 mi Calm Calm - N/A   Clear
4:35 AM 60.3 °F - 58.8 °F 95% 30.25 in 10.0 mi Calm Calm - N/A   Clear
4:54 AM 59.4 °F - 57.9 °F 95% 30.25 in 7.0 mi Calm Calm - N/A   Clear
5:14 AM 60.1 °F - 59.0 °F 96% 30.26 in 5.0 mi Calm Calm - N/A   Clear
5:34 AM 60.4 °F - 59.4 °F 96% 30.26 in 7.0 mi Calm Calm - N/A   Clear
5:55 AM 59.2 °F - 58.1 °F 96% 30.26 in 5.0 mi Calm Calm - N/A   Clear
6:14 AM 59.2 °F - 58.1 °F 96% 30.27 in 3.0 mi Calm Calm - N/A   Clear
6:34 AM 59.5 °F - 58.6 °F 97% 30.27 in 3.0 mi Calm Calm - N/A   Clear
6:54 AM 59.7 °F - 58.8 °F 97% 30.27 in 7.0 mi Calm Calm - N/A   Clear
7:14 AM 62.2 °F - 61.2 °F 96% 30.27 in 7.0 mi Calm Calm - N/A   Clear
7:34 AM 64.4 °F - 62.8 °F 94% 30.27 in 10.0 mi Calm Calm - N/A   Clear
7:54 AM 67.3 °F - 64.6 °F 91% 30.28 in 10.0 mi Calm Calm - N/A   Clear
8:15 AM 70.0 °F - 65.5 °F 86% 30.28 in 10.0 mi East 4.6 mph - N/A   Clear
8:34 AM 71.8 °F - 66.0 °F 82% 30.28 in 10.0 mi East 4.6 mph - N/A   Clear
8:55 AM 73.2 °F - 66.2 °F 79% 30.28 in 10.0 mi Calm Calm - N/A   Clear
9:15 AM 74.3 °F - 66.4 °F 76% 30.28 in 10.0 mi ENE 3.5 mph - N/A   Clear
9:34 AM 75.4 °F - 66.2 °F 73% 30.28 in 10.0 mi East 4.6 mph - N/A   Clear
9:55 AM 76.5 °F - 66.9 °F 72% 30.27 in 10.0 mi East 3.5 mph - N/A   Clear
10:14 AM 77.4 °F - 67.6 °F 72% 30.28 in 10.0 mi ESE 3.5 mph - N/A   Clear
10:35 AM 78.4 °F - 67.6 °F 69% 30.28 in 10.0 mi Calm Calm - N/A   Clear
10:54 AM 79.3 °F - 67.6 °F 67% 30.28 in 10.0 mi Calm Calm - N/A   Clear
11:14 AM 79.7 °F - 68.2 °F 68% 30.28 in 10.0 mi SE 4.6 mph - N/A   Clear
11:34 AM 81.0 °F 83.4 °F 67.5 °F 63% 30.28 in 10.0 mi Calm Calm - N/A   Clear
11:55 AM 82.8 °F 86.0 °F 68.5 °F 62% 30.28 in 10.0 mi East 3.5 mph - N/A   Clear
12:14 PM 83.1 °F 85.7 °F 66.9 °F 58% 30.28 in 10.0 mi Calm Calm - N/A   Scattered Clouds
12:35 PM 83.8 °F 86.3 °F 66.7 °F 56% 30.28 in 10.0 mi SSE 3.5 mph - N/A   Scattered Clouds
12:54 PM 83.8 °F 86.3 °F 66.7 °F 56% 30.28 in 10.0 mi East 6.9 mph - N/A   Scattered Clouds
1:14 PM 84.6 °F 86.8 °F 66.0 °F 54% 30.27 in 10.0 mi ESE 6.9 mph - N/A   Mostly Cloudy
1:35 PM 85.5 °F 86.3 °F 63.1 °F 47% 30.27 in 10.0 mi Calm Calm - N/A   Scattered Clouds
1:54 PM 86.4 °F 88.1 °F 64.9 °F 49% 30.27 in 10.0 mi ENE 3.5 mph - N/A   Scattered Clouds
2:15 PM 85.8 °F 86.6 °F 63.1 °F 46% 30.27 in 10.0 mi ENE 4.6 mph - N/A   Scattered Clouds
2:34 PM 86.0 °F 87.6 °F 64.6 °F 49% 30.27 in 10.0 mi Calm Calm - N/A   Scattered Clouds
2:55 PM 86.5 °F 87.6 °F 63.7 °F 46% 30.26 in 10.0 mi ENE 3.5 mph - N/A   Scattered Clouds
3:14 PM 88.0 °F 89.6 °F 64.9 °F 46% 30.26 in 10.0 mi ESE 6.9 mph - N/A   Mostly Cloudy
3:34 PM 87.3 °F 88.3 °F 63.7 °F 45% 30.26 in 10.0 mi East 3.5 mph - N/A   Scattered Clouds
3:55 PM 88.3 °F 88.9 °F 62.8 °F 42% 30.25 in 10.0 mi SSE 3.5 mph - N/A   Scattered Clouds
4:14 PM 87.3 °F 88.3 °F 63.3 °F 45% 30.25 in 10.0 mi East 4.6 mph - N/A   Clear
4:34 PM 87.1 °F 87.5 °F 61.9 °F 43% 30.25 in 10.0 mi ESE 4.6 mph - N/A   Scattered Clouds
4:55 PM 88.0 °F 88.4 °F 62.2 °F 42% 30.25 in 10.0 mi SSE 4.6 mph - N/A   Scattered Clouds
5:15 PM 88.9 °F 90.0 °F 63.5 °F 43% 30.25 in 10.0 mi SSW 4.6 mph - N/A   Scattered Clouds
5:34 PM 87.1 °F 87.8 °F 62.6 °F 44% 30.24 in 10.0 mi SSE 4.6 mph - N/A   Scattered Clouds
5:55 PM 86.9 °F 87.5 °F 62.4 °F 44% 30.24 in 10.0 mi Calm Calm - N/A   Clear
6:14 PM 88.2 °F 89.0 °F 63.0 °F 43% 30.24 in 10.0 mi SSE 5.8 mph - N/A   Scattered Clouds
6:35 PM 88.0 °F 88.7 °F 62.8 °F 43% 30.24 in 10.0 mi East 4.6 mph - N/A   Scattered Clouds
6:54 PM 87.8 °F 88.8 °F 63.1 °F 44% 30.23 in 10.0 mi East 4.6 mph - N/A   Scattered Clouds
7:15 PM 87.1 °F 88.6 °F 64.4 °F 47% 30.23 in 10.0 mi ENE 3.5 mph - N/A   Scattered Clouds
7:34 PM 85.6 °F 87.6 °F 65.7 °F 51% 30.23 in 10.0 mi East 6.9 mph - N/A   Clear
7:55 PM 85.5 °F 87.9 °F 66.7 °F 53% 30.23 in 10.0 mi East 3.5 mph - N/A   Clear
8:14 PM 85.1 °F 87.4 °F 66.4 °F 53% 30.23 in 10.0 mi East 3.5 mph - N/A   Clear
8:35 PM 83.5 °F 86.2 °F 67.1 °F 58% 30.24 in 10.0 mi East 3.5 mph - N/A   Clear
8:54 PM 81.1 °F 84.2 °F 68.9 °F 66% 30.24 in 10.0 mi East 3.5 mph - N/A   Clear
9:15 PM 79.0 °F - 69.8 °F 73% 30.24 in 10.0 mi East 3.5 mph - N/A   Clear
9:35 PM 77.2 °F - 70.2 °F 79% 30.24 in 10.0 mi Calm Calm - N/A   Clear
9:55 PM 74.3 °F - 69.4 °F 85% 30.25 in 10.0 mi Calm Calm - N/A   Clear
10:15 PM 75.2 °F - 70.0 °F 84% 30.26 in 10.0 mi Calm Calm - N/A   Clear
10:34 PM 73.9 °F - 69.4 °F 86% 30.26 in 10.0 mi Calm Calm - N/A   Clear
10:55 PM 72.7 °F - 69.3 °F 89% 30.26 in 7.0 mi Calm Calm - N/A   Clear
11:14 PM 72.0 °F - 68.9 °F 90% 30.26 in 7.0 mi Calm Calm - N/A   Clear
11:35 PM 72.0 °F - 69.3 °F 91% 30.26 in 7.0 mi Calm Calm - N/A   Clear
11:54 PM 72.7 °F - 69.8 °F 91% 30.26 in 7.0 mi Calm Calm - N/A   Clear